{"data":{"norad_id":64055,"epoch":"2026-05-25T04:12:30.106944Z","epoch_age_seconds":70050,"freshness":"FRESH","line1":"1 64055U 25104A   26145.17534846  .00004248  00000+0  33627-3 0  9999","line2":"2 64055  42.0048  45.8792 0012735 195.2487 164.7957 15.01535944 55971","mean_motion":15.01535944,"eccentricity":0.0012735,"inclination_deg":42.0048,"raan_deg":45.8792,"arg_perigee_deg":195.2487,"mean_anomaly_deg":164.7957,"bstar":0.00033627,"rev_number":5597,"period_min":95.901800136994,"perigee_km":553.3209500574,"apogee_km":570.99788503289,"semimajor_km":6940.2964175451,"source":"CELESTRAK","updated_at":"2026-05-25T13:38:04.197698Z"}}